COSMOS 2251 DEB, 34955

Orbit data source: Space-Track

COSMOS 2251 DEB, 34955 is space debris in LEO originally from a launch on Wed, 16 Jun 1993 UTC launched from the Plesetsk Missile And Space Complex (PKMTR). The debris from Iridium 33, an American commercial communications satellite, has been tracked extensively since its accidental collision with the defunct Russian satellite Cosmos 2251 in 2009. This event, occurring at high speed in low Earth orbit (LEO), generated thousands of pieces of space debris, significantly increasing the risk of further collisions. The Iridium 33 debris cloud has impacted space traffic management and orbital debris mitigation strategies, making it a subject of ongoing study in space situational awareness.

Loading next visibility...
Identifier
34955, 1993-036AEJ
Orbit
LEO
Country
Flag of CISCIS
Related business
Manufacturer
Unknown
Mission
Spacecraft
Bus & Motor
Unknown
Mass
Unknown
Launch date (UTC)
1993-06-16 (33 years ago)
Launch vehicle
Unknown
Launch site
Plesetsk Missile And Space Complex (PKMTR)
Object type
Payload
Rocket body
Debris
Shape & HBR
Unknown shape, 0.1 m
Radar Cross Section
Small (<0.1 m²)

Expand to show TLE details & history
Last TLE update: 20 hours ago

TLE from 20 hours ago
0 COSMOS 2251 DEB
1 34955U 93036AEJ 26257.09330115  .00006621  00000-0  44475-3 0  9993
2 34955  74.0345  44.0750 0069736  40.5348 320.1004 15.04975284941713
Epoch: 2026-09-14T02:14Z
TLE epoch observation values (Epoch: 2026-09-14T02:14:21.219Z)
Latitude
-0.00005°
Longitude
17.40803°
Altitude
517.335 km
Speed
7.625 km/s
True Right ascension
02h 56m 17s
True Declination
0° 00' 00"
Sunlit
Object was in full shadow at epoch
Visualization orbit readout
Latitude
Unknown
Longitude
Unknown
Altitude
Unknown
Speed
Unknown
Apparent Right ascension
Unknown
Apparent Declination
Unknown
Sunlit
N/A
Visualization observer readout
Local Sidereal Time
14:19:58
Azimuth
Unknown
Elevation
Unknown
Doppler factor
Unknown
Orbital elements
Apogee altitude
597.438 km
Perigee altitude
500.822 km
Semi-major axis
6,927.267 km
Eccentricity
0.00697
Inclination
74.0345°
RAAN
44.075°
Arg. of periapsis
40.5348°
True anomaly
319.58437°
Mean anomaly
320.1004°
Eccentric anomaly
319.84273°
Mean motion
3.76444 °/min
Orbital period
95.63 mins
BSTAR
0.00044475

Documentation

Showing up to 5 results
|